Location: Unspecified
(56.5167°N, 0.0000°E)
Time: 12:45:07
(UTC+02:00)

ISS - Visible Passes

Search period start: 23 May 2017 00:00
Search period end: 02 June 2017 00:00
Orbit: 402 x 409 km, 51.6° (Epoch: 23 May)

Date Brightness Start Highest point End Pass type
(mag) Time Alt. Az. Time Alt. Az. Time Alt. Az.
23 May -2.7 01:15:14 23° S 01:15:46 24° SSE 01:18:29 10° ESE visible
23 May -3.2 02:48:44 10° WSW 02:51:47 35° S 02:54:49 10° ESE visible
23 May -2.6 04:25:04 10° WSW 04:27:47 24° SSW 04:30:29 10° SE visible
24 May -2.4 00:21:32 10° SSW 00:23:56 19° SSE 00:26:20 10° ESE visible
24 May -3.2 01:56:51 10° WSW 01:59:52 34° S 02:02:53 10° ESE visible
24 May -2.9 03:33:01 10° WSW 03:35:55 28° SSW 03:38:48 10° SE visible
24 May -2.0 23:30:18 10° S 23:32:08 14° SSE 23:33:58 10° ESE visible
25 May -3.0 01:05:01 10° SW 01:07:57 30° SSE 01:10:54 10° ESE visible
25 May -3.1 02:41:01 10° WSW 02:44:01 32° S 02:47:00 10° ESE visible
25 May -2.2 04:17:42 10° WSW 04:19:54 17° SSW 04:22:06 10° SSE visible
26 May -2.8 00:13:15 10° SW 00:16:03 26° SSE 00:18:52 10° ESE visible
26 May -3.2 01:49:03 10° WSW 01:52:05 35° S 01:55:07 10° ESE visible
26 May -2.6 03:25:27 10° WSW 03:28:04 22° SSW 03:30:40 10° SSE visible
27 May -3.2 00:57:06 10° WSW 01:00:08 34° S 01:03:10 10° ESE visible
27 May -2.9 02:33:20 10° WSW 02:36:10 27° SSW 02:39:00 10° SE visible
27 May -1.8 04:11:04 10° SW 04:11:53 11° SW 04:12:42 10° SSW visible
28 May -3.1 00:05:12 10° SW 00:08:11 32° S 00:11:10 10° ESE visible
28 May -3.1 01:41:16 10° WSW 01:44:14 31° S 01:47:12 10° SE visible
28 May -2.1 03:18:06 10° WSW 03:19:52 15° SW 03:19:52 15° SW visible
29 May -3.2 00:49:15 10° WSW 00:52:17 34° S 00:55:18 10° ESE visible
29 May -2.4 02:25:44 10° WSW 02:28:14 20° SSW 02:28:29 20° SSW visible
29 May -3.1 23:57:14 10° WSW 00:00:17 35° S 00:03:20 10° ESE visible
30 May -2.7 01:33:32 10° WSW 01:36:19 25° SSW 01:37:34 20° SSE visible
31 May -2.9 00:41:25 10° WSW 00:44:21 30° SSW 00:46:51 13° SE visible
31 May -1.7 02:18:27 10° WSW 02:19:28 13° SW 02:19:28 13° SW visible
31 May -3.0 23:49:20 10° WSW 23:52:21 33° S 23:55:22 10° ESE visible
01 Jun -2.2 01:25:56 10° WSW 01:28:16 18° SSW 01:28:49 17° SSW visible
